TimeCDT,TemperatureF,Dew PointF,Humidity,Sea Level PressureIn,VisibilityMPH,Wind Direction,Wind SpeedMPH,Gust SpeedMPH,PrecipitationIn,Events,Conditions,WindDirDegrees,DateUTC
12:53 AM,57.0,55.0,93,30.20,10.0,Calm,Calm,-,N/A,,Clear,0,2013-08-17 05:53:00
1:53 AM,55.9,54.0,93,30.20,10.0,Calm,Calm,-,N/A,,Clear,0,2013-08-17 06:53:00
2:53 AM,55.0,53.1,93,30.21,10.0,Calm,Calm,-,N/A,,Clear,0,2013-08-17 07:53:00
3:53 AM,54.0,53.1,97,30.21,7.0,Calm,Calm,-,N/A,,Clear,0,2013-08-17 08:53:00
4:53 AM,53.1,52.0,96,30.22,5.0,Calm,Calm,-,N/A,,Clear,0,2013-08-17 09:53:00
5:53 AM,53.1,52.0,96,30.23,6.0,Calm,Calm,-,N/A,,Partly Cloudy,0,2013-08-17 10:53:00
6:53 AM,53.1,52.0,96,30.24,7.0,Calm,Calm,-,N/A,,Partly Cloudy,0,2013-08-17 11:53:00
7:53 AM,61.0,57.0,87,30.25,10.0,Calm,Calm,-,N/A,,Clear,0,2013-08-17 12:53:00
8:53 AM,68.0,57.0,68,30.25,10.0,South,5.8,-,N/A,,Clear,180,2013-08-17 13:53:00
9:53 AM,71.1,55.9,59,30.25,10.0,South,5.8,-,N/A,,Clear,190,2013-08-17 14:53:00
10:53 AM,73.9,54.0,50,30.25,10.0,Variable,3.5,-,N/A,,Clear,0,2013-08-17 15:53:00
11:53 AM,75.9,53.1,45,30.24,10.0,South,6.9,-,N/A,,Partly Cloudy,190,2013-08-17 16:53:00
12:53 PM,78.1,55.0,45,30.22,10.0,SE,6.9,-,N/A,,Partly Cloudy,140,2013-08-17 17:53:00
1:53 PM,80.1,53.1,39,30.21,10.0,NE,8.1,-,N/A,,Scattered Clouds,50,2013-08-17 18:53:00
2:53 PM,80.1,50.0,35,30.19,10.0,ESE,4.6,-,N/A,,Partly Cloudy,120,2013-08-17 19:53:00
3:53 PM,79.0,52.0,39,30.18,10.0,SE,5.8,-,N/A,,Partly Cloudy,130,2013-08-17 20:53:00
4:53 PM,79.0,52.0,39,30.18,10.0,ESE,3.5,-,N/A,,Partly Cloudy,110,2013-08-17 21:53:00
5:53 PM,78.1,52.0,40,30.18,10.0,Variable,3.5,-,N/A,,Partly Cloudy,0,2013-08-17 22:53:00
6:53 PM,75.9,53.1,45,30.17,10.0,SE,8.1,-,N/A,,Partly Cloudy,140,2013-08-17 23:53:00
7:53 PM,72.0,53.1,51,30.17,10.0,SE,5.8,-,N/A,,Clear,130,2013-08-18 00:53:00
8:53 PM,66.0,55.9,70,30.17,10.0,Calm,Calm,-,N/A,,Clear,0,2013-08-18 01:53:00
9:53 PM,64.0,55.9,75,30.18,10.0,Calm,Calm,-,N/A,,Clear,0,2013-08-18 02:53:00
10:53 PM,68.0,55.9,65,30.17,10.0,South,6.9,-,N/A,,Clear,180,2013-08-18 03:53:00
11:53 PM,66.0,55.9,70,30.18,10.0,South,4.6,-,N/A,,Clear,170,2013-08-18 04:53:00